Glendive, MT

9:04 PM MDT on August 20, 2017 (GMT -0600)
Dawson Community

Weather History for KGDV - February, 2013

Change the Weather History Date:

Wednesday, February 27, 2013

  Actual Average Record
Temperature  
Mean Temperature 26 °F -  
Max Temperature 30 °F 28 °F 64 °F (2016)
Min Temperature 21 °F 10 °F -13 °F (2001)
Degree Days  
Heating Degree Days 40    
Moisture  
Dew Point 21 °F    
Average Humidity 78    
Maximum Humidity 93    
Minimum Humidity 69    
Precipitation  
Precipitation 0.00 in - - ()
Sea Level Pressure  
Sea Level Pressure 30.23 in    
Wind  
Wind Speed 10 mph (NNW)    
Max Wind Speed 16 mph    
Max Gust Speed 21 mph    
Visibility 10 miles    
Events      
Averages and records for this station are not official NWS values.
T = Trace of Precipitation, MM = Missing Value Source: NWS Daily Summary

Daily Weather History Graph

Daily Weather History Graph

Search for Another Location

Airport or City:

Trip Planner

Search our weather history database for the weather conditions in past years. The results will help you decide how hot, cold, wet, or windy it might be!

Date:

Astronomy

Feb. 27, 2013 Rise Set
Actual Time 6:42 AM MST 5:42 PM MST
Civil Twilight 6:11 AM MST 6:12 PM MST
Nautical Twilight 5:36 AM MST 6:48 PM MST
Astronomical Twilight 5:01 AM MST 7:23 PM MST
Moon 8:19 PM MST (2/27) 7:08 AM MST (2/27)
Length of Visible Light 12h 01m
Length of Day
10h 59m
Waning Gibbous, 96% of the Moon is Illuminated
Feb 27
Waning Gibbous
Mar 4
Last Quarter
Mar 11
New
Mar 19
First Quarter
Mar 27
Full

Hourly Weather History & Observations

Time (MST) Temp. Windchill Dew Point Humidity Pressure Visibility Wind Dir Wind Speed Gust Speed Precip Events Conditions
12:15 AM 26.6 °F 14.3 °F 19.4 °F 74% 30.16 in 10.0 mi WNW 16.1 mph 20.7 mph N/A   Overcast
12:35 AM 26.6 °F 14.3 °F 19.4 °F 74% 30.16 in 10.0 mi NW 16.1 mph 19.6 mph N/A   Overcast
12:55 AM 28.4 °F 16.6 °F 19.4 °F 69% 30.16 in 10.0 mi WNW 16.1 mph 20.7 mph N/A   Overcast
1:15 AM 28.4 °F 18.0 °F 21.2 °F 74% 30.17 in 10.0 mi NW 12.7 mph - N/A   Overcast
1:55 AM 26.6 °F 14.7 °F 21.2 °F 80% 30.18 in 10.0 mi WNW 15.0 mph - N/A   Overcast
2:15 AM 26.6 °F 15.7 °F 21.2 °F 80% 30.19 in 10.0 mi WNW 12.7 mph - N/A   Overcast
2:35 AM 26.6 °F 14.7 °F 21.2 °F 80% 30.19 in 10.0 mi WNW 15.0 mph - N/A   Overcast
2:55 AM 26.6 °F 15.7 °F 21.2 °F 80% 30.19 in 10.0 mi NW 12.7 mph - N/A   Overcast
3:15 AM 26.6 °F 16.8 °F 21.2 °F 80% 30.19 in 10.0 mi NW 10.4 mph - N/A   Overcast
3:35 AM 26.6 °F 14.7 °F 21.2 °F 80% 30.19 in 10.0 mi WNW 15.0 mph 18.4 mph N/A   Overcast
3:55 AM 26.6 °F 16.8 °F 21.2 °F 80% 30.20 in 10.0 mi NW 10.4 mph - N/A   Overcast
4:15 AM 26.6 °F 16.8 °F 21.2 °F 80% 30.20 in 10.0 mi NW 10.4 mph - N/A   Overcast
4:35 AM 26.6 °F 15.7 °F 21.2 °F 80% 30.20 in 10.0 mi NW 12.7 mph - N/A   Overcast
4:55 AM 26.6 °F 16.8 °F 21.2 °F 80% 30.21 in 10.0 mi NW 10.4 mph - N/A   Overcast
5:15 AM 26.6 °F 17.5 °F 21.2 °F 80% 30.21 in 10.0 mi WNW 9.2 mph - N/A   Overcast
5:35 AM 26.6 °F 15.7 °F 21.2 °F 80% 30.22 in 10.0 mi NW 12.7 mph - N/A   Overcast
5:55 AM 26.6 °F 14.7 °F 21.2 °F 80% 30.22 in 10.0 mi NW 15.0 mph - N/A   Overcast
6:15 AM 26.6 °F 15.2 °F 21.2 °F 80% 30.23 in 10.0 mi NW 13.8 mph - N/A   Overcast
6:35 AM 26.6 °F 17.5 °F 21.2 °F 80% 30.22 in 10.0 mi NW 9.2 mph - N/A   Overcast
6:56 AM 26.6 °F 16.2 °F 21.2 °F 80% 30.23 in 10.0 mi NW 11.5 mph - N/A   Overcast
7:15 AM 26.6 °F 17.5 °F 21.2 °F 80% 30.23 in 10.0 mi NNW 9.2 mph - N/A   Overcast
7:55 AM 26.6 °F 17.5 °F 21.2 °F 80% 30.24 in 10.0 mi NNW 9.2 mph - N/A   Overcast
8:15 AM 26.6 °F 16.8 °F 21.2 °F 80% 30.24 in 10.0 mi NW 10.4 mph - N/A   Overcast
8:55 AM 26.6 °F 16.8 °F 23.0 °F 86% 30.25 in 10.0 mi NNW 10.4 mph - N/A   Overcast
9:15 AM 26.6 °F 16.8 °F 21.2 °F 80% 30.25 in 10.0 mi North 10.4 mph - N/A   Overcast
9:35 AM 26.6 °F 17.5 °F 23.0 °F 86% 30.25 in 10.0 mi NNW 9.2 mph - N/A   Overcast
9:55 AM 26.6 °F 18.2 °F 21.2 °F 80% 30.25 in 10.0 mi NNW 8.1 mph - N/A   Overcast
10:15 AM 28.4 °F 20.4 °F 21.2 °F 74% 30.25 in 10.0 mi NNW 8.1 mph - N/A   Overcast
10:35 AM 28.4 °F 21.2 °F 21.2 °F 74% 30.25 in 10.0 mi NNW 6.9 mph - N/A   Overcast
10:55 AM 28.4 °F 22.2 °F 21.2 °F 74% 30.26 in 10.0 mi NW 5.8 mph - N/A   Overcast
11:15 AM 28.4 °F 21.2 °F 21.2 °F 74% 30.26 in 10.0 mi NNW 6.9 mph - N/A   Overcast
11:35 AM 28.4 °F 21.2 °F 21.2 °F 74% 30.26 in 10.0 mi NNW 6.9 mph - N/A   Overcast
11:55 AM 28.4 °F 21.2 °F 21.2 °F 74% 30.26 in 10.0 mi NW 6.9 mph - N/A   Overcast
12:15 PM 28.4 °F 21.2 °F 21.2 °F 74% 30.26 in 10.0 mi NNW 6.9 mph - N/A   Overcast
12:35 PM 28.4 °F 22.2 °F 21.2 °F 74% 30.26 in 10.0 mi NW 5.8 mph - N/A   Overcast
12:55 PM 28.4 °F 21.2 °F 21.2 °F 74% 30.25 in 10.0 mi North 6.9 mph - N/A   Overcast
1:35 PM 28.4 °F 21.2 °F 21.2 °F 74% 30.25 in 10.0 mi NW 6.9 mph - N/A   Overcast
1:55 PM 30.2 °F 24.3 °F 23.0 °F 75% 30.24 in 10.0 mi WNW 5.8 mph - N/A   Overcast
2:15 PM 30.2 °F 24.3 °F 23.0 °F 75% 30.24 in 10.0 mi NNW 5.8 mph - N/A   Overcast
2:35 PM 30.2 °F 25.4 °F 21.2 °F 69% 30.24 in 10.0 mi NNW 4.6 mph - N/A   Overcast
2:55 PM 30.2 °F 26.7 °F 21.2 °F 69% 30.24 in 10.0 mi WNW 3.5 mph - N/A   Overcast
3:15 PM 30.2 °F 26.7 °F 21.2 °F 69% 30.24 in 10.0 mi NW 3.5 mph - N/A   Overcast
3:35 PM 30.2 °F - 21.2 °F 69% 30.24 in 10.0 mi Calm Calm - N/A   Overcast
3:55 PM 30.2 °F 26.7 °F 21.2 °F 69% 30.24 in 10.0 mi NNE 3.5 mph - N/A   Overcast
4:15 PM 30.2 °F 26.7 °F 21.2 °F 69% 30.24 in 10.0 mi NNE 3.5 mph - N/A   Overcast
4:35 PM 30.2 °F 25.4 °F 21.2 °F 69% 30.24 in 10.0 mi NE 4.6 mph - N/A   Overcast
4:55 PM 30.2 °F 24.3 °F 21.2 °F 69% 30.24 in 10.0 mi NE 5.8 mph - N/A   Overcast
5:15 PM 28.4 °F 22.2 °F 21.2 °F 74% 30.24 in 10.0 mi ENE 5.8 mph - N/A   Overcast
5:35 PM 28.4 °F 20.4 °F 21.2 °F 74% 30.23 in 10.0 mi ENE 8.1 mph - N/A   Overcast
5:55 PM 28.4 °F 23.3 °F 21.2 °F 74% 30.23 in 10.0 mi NE 4.6 mph - N/A   Overcast
6:15 PM 26.6 °F 22.6 °F 21.2 °F 80% 30.24 in 10.0 mi ENE 3.5 mph - N/A   Mostly Cloudy
6:35 PM 28.4 °F 23.3 °F 21.2 °F 74% 30.24 in 10.0 mi East 4.6 mph - N/A   Overcast
6:55 PM 28.4 °F 24.6 °F 21.2 °F 74% 30.24 in 10.0 mi East 3.5 mph - N/A   Overcast
7:15 PM 26.6 °F 22.6 °F 21.2 °F 80% 30.24 in 10.0 mi East 3.5 mph - N/A   Overcast
7:35 PM 26.6 °F - 19.4 °F 74% 30.24 in 10.0 mi Calm Calm - N/A   Mostly Cloudy
7:55 PM 26.6 °F 22.6 °F 19.4 °F 74% 30.23 in 10.0 mi NE 3.5 mph - N/A   Scattered Clouds
8:15 PM 24.8 °F 20.5 °F 21.2 °F 86% 30.24 in 10.0 mi ENE 3.5 mph - N/A   Clear
8:35 PM 26.6 °F 22.6 °F 19.4 °F 74% 30.24 in 10.0 mi ENE 3.5 mph - N/A   Clear
8:55 PM 24.8 °F 20.5 °F 19.4 °F 80% 30.23 in 10.0 mi ENE 3.5 mph - N/A   Clear
9:15 PM 24.8 °F 19.1 °F 19.4 °F 80% 30.23 in 10.0 mi ENE 4.6 mph - N/A   Clear
9:35 PM 24.8 °F 20.5 °F 19.4 °F 80% 30.23 in 10.0 mi East 3.5 mph - N/A   Clear
10:15 PM 23.0 °F 17.0 °F 19.4 °F 86% 30.23 in 10.0 mi East 4.6 mph - N/A   Clear
10:35 PM 23.0 °F 18.4 °F 19.4 °F 86% 30.23 in 10.0 mi SSE 3.5 mph - N/A   Clear
10:55 PM 21.2 °F - 17.6 °F 86% 30.23 in 10.0 mi Calm Calm - N/A   Clear
11:15 PM 21.2 °F - 17.6 °F 86% 30.22 in 10.0 mi Calm Calm - N/A   Mostly Cloudy
11:35 PM 21.2 °F - 19.4 °F 93% 30.21 in 10.0 mi Calm Calm - N/A   Overcast
11:55 PM 21.2 °F - 19.4 °F 93% 30.21 in 10.0 mi Calm Calm - N/A   Scattered Clouds